Location: Unspecified
(0.0000°N, 0.0000°E)
Time: 00:25:18
(UTC+02:00)

Ariane H10-3 - Visible Passes

Search period start: 28 March 2017 00:00
Search period end: 07 April 2017 00:00
Orbit: 227 x 20336 km, 7.2° (Epoch: 26 March)

Date Brightness Start Highest point End Pass type
(mag) Time Alt. Az. Time Alt. Az. Time Alt. Az.
28 Mar 7.7 07:19:04 11° W 11:02:52 75° N 11:12:55 10° E visible
28 Mar 7.9 23:35:00 10° WSW 23:56:23 83° S 04:20:43 10° E visible
29 Mar 7.8 07:05:07 15° W 10:47:24 76° N 10:58:30 10° E visible
29 Mar 7.7 23:20:19 10° WSW 23:39:22 82° S 04:02:33 10° E visible
30 Mar 8.0 06:50:54 18° W 10:31:33 76° N 10:43:50 10° E visible
30 Mar 7.6 23:05:27 10° WSW 23:22:26 81° S 03:43:26 10° E visible
31 Mar 8.1 06:36:25 22° W 10:15:15 76° N 10:28:55 10° E visible
31 Mar 7.4 22:50:22 10° WSW 23:05:35 80° S 03:23:11 10° E visible
01 Apr 8.3 06:21:40 25° W 09:58:29 77° N 10:13:45 10° E visible
01 Apr 7.2 22:35:06 10° WSW 22:48:43 79° S 03:01:28 10° E visible
02 Apr 8.4 06:06:38 29° W 09:41:10 77° N 09:58:20 10° E visible
02 Apr 7.0 22:19:38 10° WSW 22:31:51 77° S 02:37:47 10° E visible
03 Apr 8.6 05:51:21 33° W 09:23:14 78° N 09:42:37 10° E visible
03 Apr 6.8 22:03:57 10° WSW 22:14:55 76° SSE 02:11:16 10° E visible
04 Apr 8.7 05:35:48 37° W 09:04:36 78° N 09:26:40 10° E visible
04 Apr 6.6 21:48:05 10° WSW 21:57:56 74° SSE 01:40:16 10° E visible
05 Apr 8.9 05:19:58 42° W 08:45:08 78° N 09:10:25 10° E visible
05 Apr 6.4 21:32:00 10° WSW 21:40:51 73° SSE 01:00:55 10° E visible
06 Apr 9.1 05:03:52 46° W 08:24:36 78° N 08:53:54 10° E visible
